SCOUT X-4 R/B, 1739

Orbit data source: Space-Track

SCOUT X-4 R/B, 1739 is space debris in LEO originally from a launch on Fri, 19 Nov 1965 UTC launched from the Wallops Island (WLPIS). Debris objects in space refer to the collection of defunct objects orbiting the Earth. Examples of debris include non-operational satellites, rocket bodies, and fragments generated from explosions, collisions, or faulty payload assembly.

Loading next visibility...
Identifier
1739, 1965-093B
Orbit
LEO
Country
Flag of USUS
Related business
Manufacturer
ABL
Mission
Spacecraft
Bus & Motor
ALTAIR, Unknown motor
Mass
33 kg wet, 33 kg dry
Launch date (UTC)
1965-11-19 (61 years ago)
Launch vehicle
Unknown
Launch site
Wallops Island (WLPIS)
Object type
Payload
Rocket body
Debris
Shape & HBR
CYL, 0.8 m
Radar Cross Section
Medium (>0.1 m² and <1 m²)

Expand to show TLE details & history
Last TLE update: 16 hours ago

TLE from 16 hours ago
0 SCOUT X-4 R/B
1 01739U 65093B   26253.42599301  .00000233  00000-0  88143-4 0  9990
2 01739  59.7026 278.9925 0076590 346.3836  13.5141 14.55304811182731
Epoch: 2026-09-10T10:13Z
TLE epoch observation values (Epoch: 2026-09-10T10:13:25.796Z)
Latitude
0.00003°
Longitude
136.17116°
Altitude
657.145 km
Speed
7.558 km/s
True Right ascension
18h 35m 58s
True Declination
0° 00' 00"
Sunlit
Object was in daylight at epoch
Visualization orbit readout
Latitude
Unknown
Longitude
Unknown
Altitude
Unknown
Speed
Unknown
Apparent Right ascension
Unknown
Apparent Declination
Unknown
Sunlit
N/A
Visualization observer readout
Local Sidereal Time
18:04:50
Azimuth
Unknown
Elevation
Unknown
Doppler factor
Unknown
Orbital elements
Apogee altitude
761.915 km
Perigee altitude
653.375 km
Semi-major axis
7,085.782 km
Eccentricity
0.00766
Inclination
59.7026°
RAAN
278.9925°
Arg. of periapsis
346.3836°
True anomaly
13.72112°
Mean anomaly
13.5141°
Eccentric anomaly
13.61742°
Mean motion
3.63883 °/min
Orbital period
98.93 mins
BSTAR
0.000088143
Loading maneuver chart data...
Computing Atmospheric mass density...
Loading historical data...
Loading historical data...
Loading historical data...
Loading historical data...
Loading historical data...
Loading historical data...
Loading historical data...
Other satellites on launch #93 in the year 1965 (1965-11-19 UTC)

Documentation

Showing up to 5 results
|